Weather History for Toledo, OH

Change the Weather History Date:

Thursday, September 19, 2013

  Actual Average Record
Temperature  
Mean Temperature 71 °F 63 °F  
Max Temperature 82 °F 74 °F 93 °F (1955)
Min Temperature 60 °F 51 °F 35 °F (1973)
Degree Days  
Heating Degree Days 0 4  
Month to date heating degree days 55 42  
Since 1 July heating degree days 84 56  
Cooling Degree Days 6 2  
Month to date cooling degree days 79 67  
Year to date cooling degree days 761 769  
Growing Degree Days 21 (Base 50)    
Moisture  
Dew Point 63 °F    
Average Humidity 79    
Maximum Humidity 100    
Minimum Humidity 58    
Precipitation  
Precipitation T in 0.09 in 2.51 in (1997)
Month to date precipitation 1.24 1.78  
Year to date precipitation 28.03 25.10  
Snow  
Snow 0.00 in 0.00 in - ()
Month to date snowfall 0.0 0.0  
Since 1 July snowfall 0.0 0.0  
Since 1 September snowfall 0.0 0.0  
Snow Depth 0.00 in    
Sea Level Pressure  
Sea Level Pressure 30.01 in    
Wind  
Wind Speed 4 mph (SSW)    
Max Wind Speed 13 mph    
Max Gust Speed 17 mph    
Visibility 6 miles    
Events      
T = Trace of Precipitation, MM = Missing Value Source: NWS Daily Summary

Daily Weather History Graph

Daily Weather History Graph

Search for Another Location

Airport:

Trip Planner

Search our weather history database for the weather conditions in past years. The results will help you decide how hot, cold, wet, or windy it might be!

Date:

Astronomy

Sep. 19, 2013 Rise Set
Actual Time 7:19 AM EDT 7:37 PM EDT
Civil Twilight 6:52 AM EDT 8:04 PM EDT
Nautical Twilight 6:19 AM EDT 8:37 PM EDT
Astronomical Twilight 5:46 AM EDT 9:10 PM EDT
Moon 7:33 PM EDT (9/19) 7:28 AM EDT (9/19)
Length of Visible Light 13h 12m
Length of Day
12h 17m
Full, 100% of the Moon is Illuminated
Sep 19
Full
Sep 26
Last Quarter
Oct 4
New
Oct 11
First Quarter
Oct 18
Full

Hourly Weather History & Observations

Time (EDT) Temp. Heat Index Dew Point Humidity Pressure Visibility Wind Dir Wind Speed Gust Speed Precip Events Conditions
12:52 AM 61.0 °F - 57.9 °F 90% 30.04 in 8.0 mi SE 3.5 mph - N/A   Clear
1:52 AM 60.1 °F - 57.9 °F 93% 30.04 in 7.0 mi Calm Calm - N/A   Clear
2:52 AM 60.1 °F - 57.9 °F 93% 30.04 in 6.0 mi Calm Calm - N/A   Clear
3:52 AM 60.1 °F - 57.9 °F 93% 30.03 in 7.0 mi Calm Calm - N/A   Partly Cloudy
4:52 AM 60.1 °F - 57.9 °F 93% 30.02 in 6.0 mi Calm Calm - N/A   Clear
5:52 AM 60.1 °F - 59.0 °F 96% 30.02 in 4.0 mi South 3.5 mph - N/A   Partly Cloudy
6:47 AM 60.8 °F - 59.0 °F 94% 30.04 in 2.5 mi Calm Calm - N/A   Clear
6:52 AM 60.1 °F - 60.1 °F 100% 30.03 in 2.5 mi Calm Calm - N/A   Clear
7:25 AM 60.8 °F - 60.8 °F 100% 30.06 in 1.5 mi Variable 3.5 mph - N/A   Clear
7:52 AM 62.1 °F - 61.0 °F 96% 30.05 in 1.2 mi Variable 4.6 mph - N/A   Mostly Cloudy
8:12 AM 62.6 °F - 60.8 °F 94% 30.06 in 1.2 mi Calm Calm - N/A   Mostly Cloudy
8:23 AM 62.6 °F - 60.8 °F 94% 30.06 in 1.0 mi Calm Calm - N/A   Mostly Cloudy
8:43 AM 62.6 °F - 62.6 °F 100% 30.05 in 1.2 mi South 4.6 mph - N/A   Overcast
8:52 AM 64.0 °F - 63.0 °F 96% 30.05 in 1.2 mi South 5.8 mph - N/A   Overcast
9:00 AM 64.4 °F - 62.6 °F 94% 30.05 in 1.5 mi South 4.6 mph - N/A   Overcast
9:23 AM 66.2 °F - 64.4 °F 94% 30.05 in 2.0 mi South 4.6 mph - N/A   Overcast
9:52 AM 68.0 °F - 64.9 °F 90% 30.05 in 3.0 mi South 9.2 mph - N/A   Overcast
10:01 AM 69.8 °F - 64.4 °F 83% 30.05 in 2.0 mi SSW 6.9 mph - N/A   Overcast
10:36 AM 69.8 °F - 64.4 °F 83% 30.05 in 2.0 mi SSW 4.6 mph - N/A   Haze
10:43 AM 69.8 °F - 64.4 °F 83% 30.05 in 5.0 mi SW 4.6 mph - N/A   Haze
10:52 AM 71.1 °F - 64.9 °F 81% 30.04 in 5.0 mi SSW 5.8 mph - N/A   Haze
11:27 AM 73.4 °F - 64.4 °F 73% 30.05 in 10.0 mi South 5.8 mph - N/A   Overcast
11:34 AM 73.4 °F - 64.4 °F 73% 30.05 in 9.0 mi SSW 8.1 mph - N/A   Overcast
11:52 AM 73.9 °F - 64.0 °F 71% 30.04 in 10.0 mi SW 4.6 mph - N/A   Overcast
12:52 PM 77.0 °F - 64.9 °F 66% 30.02 in 10.0 mi Variable 5.8 mph - N/A   Partly Cloudy
1:52 PM 80.1 °F 81.7 °F 64.0 °F 58% 30.00 in 10.0 mi SSW 9.2 mph - N/A   Clear
2:52 PM 81.0 °F 82.7 °F 64.9 °F 58% 29.99 in 10.0 mi SW 9.2 mph - N/A   Partly Cloudy
3:52 PM 79.0 °F - 64.0 °F 60% 29.99 in 10.0 mi WSW 11.5 mph - N/A   Partly Cloudy
4:52 PM 75.9 °F - 66.0 °F 71% 29.98 in 10.0 mi WSW 8.1 mph - N/A   Scattered Clouds
5:52 PM 73.9 °F - 66.0 °F 76% 29.96 in 10.0 mi SSW 3.5 mph - 0.00 in   Scattered Clouds
6:52 PM 72.0 °F - 66.0 °F 81% 29.94 in 10.0 mi South 3.5 mph - N/A   Clear
7:52 PM 69.1 °F - 66.0 °F 90% 29.95 in 10.0 mi Calm Calm - N/A   Scattered Clouds
8:52 PM 66.9 °F - 64.9 °F 93% 29.94 in 9.0 mi Calm Calm - N/A   Clear
9:52 PM 66.9 °F - 66.0 °F 97% 29.96 in 8.0 mi South 3.5 mph - N/A   Clear
10:29 PM 68.0 °F - 66.2 °F 94% 29.97 in 6.0 mi SSW 5.8 mph - N/A   Mostly Cloudy
10:52 PM 68.0 °F - 66.9 °F 96% 29.97 in 5.0 mi SSW 5.8 mph - N/A   Partly Cloudy
11:00 PM 68.0 °F - 66.2 °F 94% 29.97 in 5.0 mi South 5.8 mph - N/A   Scattered Clouds
11:18 PM 68.0 °F - 68.0 °F 100% 29.97 in 4.0 mi South 4.6 mph - N/A   Mostly Cloudy
11:45 PM 68.0 °F - 66.2 °F 94% 29.96 in 4.0 mi South 5.8 mph - N/A   Scattered Clouds
11:52 PM 68.0 °F - 66.9 °F 96% 29.95 in 5.0 mi South 5.8 mph - N/A   Partly Cloudy